Powrót do katalogu

JO-97

JY1SAT

AktywnyKrótkofalarstwoSSO
NORAD 43803·PAYLOAD·🇯🇴 Jordan

Wystrzelony Dec 3, 2018 z Vandenberg Space Force Base

Loading…

Następne Przeloty (najbliższe 24 godziny)

TLE

ŚwieżeSource: AMSAT

Epoka: Sep 14, 2026, 09:42 UTC

1 43803U 18099AX  26257.40456493  .00013172  00000-0  37443-3 0  9990
2 43803  97.4033 320.6747 0004078 322.4190  37.6768 15.36281570427317

Śledź JO-97 w czasie rzeczywistym z AllMySat

Download on the App Store